GW0983 Weather Reports


time (UTC)temp
F
wind
direction
speed
knots
gust
knots
rain 1hr
in
rain 24hr
in
rain mn
in
humidity
%
barometer
mb
20260506164042 55 193 2.6 6.1 0.00 0.00 0.00 87 1024.3
20260506163540 55 221 2.6 6.1 0.00 0.00 0.00 87 1024.2
20260506163056 55 245 0.9 7.0 0.00 0.00 0.00 87 1024.1
20260506162545 55 247 0.9 7.0 0.00 0.00 0.00 87 1024.2
20260506162042 54 241 2.6 7.0 0.00 0.00 0.00 87 1024.2
20260506161547 54 221 1.7 4.3 0.00 0.00 0.00 87 1024.2
20260506161041 54 241 1.7 4.3 0.00 0.00 0.00 87 1024.1
20260506160542 54 61 1.7 4.3 0.00 0.00 0.00 87 1024.2
20260506160057 54 257 1.7 4.3 0.00 0.00 0.00 88 1024.2
20260506155541 54 76 1.7 4.3 0.00 0.00 0.00 88 1024.1
20260506155041 53 215 1.7 4.3 0.00 0.00 0.00 88 1024.2
20260506154556 54 237 1.7 4.3 0.00 0.00 0.00 88 1024.1
20260506154041 53 86 0.9 2.6 0.00 0.00 0.00 91 1024.2
20260506153544 52 9 0.0 2.6 0.00 0.00 0.00 91 1024.2
20260506153051 52 212 0.9 2.6 0.00 0.00 0.00 90 1024.2
20260506152542 52 265 0.9 2.6 0.00 0.00 0.00 91 1024.1
20260506152043 52 0 0.9 2.6 0.00 0.00 0.00 91 1024.1
20260506151553 52 275 0.9 1.7 0.00 0.00 0.00 92 1024.2
20260506151041 52 250 0.9 1.7 0.00 0.00 0.00 92 1024.1
20260506150544 51 51 0.0 1.7 0.00 0.00 0.00 93 1024.0
20260506145540 51 221 0.9 1.7 0.00 0.00 0.00 93 1024.1
20260506145041 51 221 0.0 1.7 0.00 0.00 0.00 93 1024.0
20260506144555 51 0 0.0 1.7 0.00 0.00 0.00 94 1024.0
20260506144041 50 178 0.0 1.7 0.00 0.00 0.00 93 1023.9
20260506143541 50 0 0.0 1.7 0.00 0.00 0.00 93 1024.0
20260506143056 50 212 0.0 2.6 0.00 0.00 0.00 93 1023.9
20260506142540 50 51 0.0 2.6 0.00 0.00 0.00 93 1024.0
20260506142041 50 296 0.9 2.6 0.00 0.00 0.00 93 1023.9
20260506141549 50 221 0.9 1.7 0.00 0.00 0.00 93 1023.8
20260506141042 50 212 0.9 1.7 0.00 0.00 0.00 93 1023.6
20260506140542 50 265 0.9 1.7 0.00 0.00 0.00 93 1023.7
20260506140052 50 0 0.0 1.7 0.00 0.00 0.00 93 1023.6
20260506135542 50 221 0.9 2.6 0.00 0.00 0.00 93 1023.5
20260506135042 50 232 0.9 2.6 0.00 0.00 0.00 93 1023.5
20260506134551 50 221 0.0 3.5 0.00 0.00 0.00 93 1023.5
20260506134044 50 212 0.0 3.5 0.00 0.00 0.00 93 1023.3
20260506133542 50 265 0.0 2.6 0.00 0.00 0.00 93 1023.4
20260506133107 50 214 0.0 2.6 0.00 0.00 0.00 93 1023.4
20260506132541 50 93 0.0 2.6 0.00 0.00 0.00 93 1023.4
20260506132043 50 292 0.0 3.5 0.00 0.00 0.00 93 1023.3
20260506131558 50 250 0.9 3.5 0.00 0.00 0.00 93 1023.3
20260506131044 50 229 0.9 2.6 0.00 0.00 0.00 93 1023.2
20260506130541 50 221 0.9 2.6 0.00 0.00 0.00 93 1023.1
20260506130049 50 210 0.9 2.6 0.00 0.00 0.00 93 1023.2
20260506125542 50 0 0.9 2.6 0.00 0.00 0.00 93 1023.0
20260506125040 50 275 0.9 2.6 0.00 0.00 0.00 93 1023.1
20260506124548 50 309 0.9 2.6 0.00 0.00 0.00 92 1023.0
20260506124045 50 0 0.9 2.6 0.00 0.00 0.00 92 1023.0
20260506123543 50 239 0.9 2.6 0.00 0.00 0.00 92 1022.9
20260506123049 50 239 0.0 2.6 0.00 0.00 0.00 92 1022.9
20260506122542 50 190 0.9 2.6 0.00 0.00 0.00 93 1022.9
20260506122041 50 0 0.9 2.6 0.00 0.00 0.00 93 1022.9
20260506121553 50 254 0.9 2.6 0.00 0.00 0.00 93 1022.9
20260506121041 50 221 0.9 2.6 0.00 0.00 0.00 93 1022.8
20260506120541 50 178 0.9 3.5 0.00 0.00 0.00 93 1022.7
20260506120059 50 239 0.9 3.5 0.00 0.00 0.00 93 1022.9
20260506115541 50 226 0.9 3.5 0.00 0.00 0.00 93 1022.8
20260506115042 50 214 1.7 2.6 0.00 0.00 0.00 93 1022.7
20260506114550 50 221 0.9 3.5 0.00 0.00 0.00 93 1022.7
20260506114046 50 221 0.9 3.5 0.00 0.00 0.00 92 1022.9
20260506113542 50 221 1.7 3.5 0.00 0.00 0.00 92 1022.7
20260506113048 50 234 0.9 3.5 0.00 0.00 0.00 92 1022.7
20260506112545 50 201 1.7 3.5 0.00 0.00 0.00 92 1022.6
20260506112041 50 217 1.7 3.5 0.00 0.00 0.00 92 1022.6
20260506111550 50 236 0.9 3.5 0.00 0.00 0.00 92 1022.4
20260506111041 50 242 1.7 5.2 0.00 0.00 0.00 92 1022.6
20260506110541 50 252 2.6 5.2 0.00 0.00 0.00 92 1022.5
20260506110058 50 208 0.9 4.3 0.00 0.00 0.00 92 1022.5
20260506105541 50 242 1.7 6.1 0.00 0.00 0.00 92 1022.4
20260506105046 50 9 1.7 6.1 0.00 0.00 0.00 92 1022.4
20260506104558 50 196 1.7 4.3 0.00 0.00 0.00 92 1022.4
20260506104041 50 213 1.7 4.3 0.00 0.00 0.00 92 1022.3
20260506103541 50 219 0.9 4.3 0.00 0.00 0.00 92 1022.4
20260506103049 50 225 1.7 4.3 0.00 0.00 0.00 92 1022.4
20260506102544 50 259 1.7 6.1 0.00 0.00 0.00 92 1022.4
20260506102045 50 162 1.7 6.1 0.00 0.00 0.00 92 1022.4
20260506101552 50 229 1.7 6.1 0.00 0.00 0.00 92 1022.2
20260506101041 50 255 1.7 6.1 0.00 0.00 0.00 92 1022.3
20260506100543 50 218 1.7 6.1 0.00 0.00 0.00 93 1022.1
20260506100058 50 209 1.7 6.1 0.00 0.00 0.00 93 1022.2
20260506095542 50 242 1.7 6.1 0.00 0.00 0.00 93 1022.2
20260506095042 50 229 2.6 6.1 0.00 0.00 0.00 93 1022.2
20260506094600 50 229 1.7 5.2 0.00 0.00 0.00 93 1022.4
20260506094041 50 196 1.7 4.3 0.00 0.00 0.00 93 1022.4
20260506093541 50 201 1.7 4.3 0.00 0.00 0.00 93 1022.4
20260506093050 50 212 1.7 4.3 0.00 0.00 0.00 93 1022.4
20260506092541 50 225 0.9 3.5 0.00 0.00 0.00 93 1022.4
20260506092041 50 265 1.7 6.1 0.00 0.00 0.00 93 1022.4
20260506091549 50 225 0.9 6.1 0.00 0.00 0.00 93 1022.4
20260506091043 50 215 2.6 6.1 0.00 0.00 0.00 93 1022.4
20260506090540 50 291 0.9 3.5 0.00 0.00 0.00 93 1022.3
20260506090053 50 221 0.9 5.2 0.00 0.00 0.00 93 1022.3
20260506085541 50 162 0.9 5.2 0.00 0.00 0.00 93 1022.3
20260506085041 50 221 2.6 6.1 0.00 0.00 0.00 93 1022.4
20260506084618 50 226 0.9 6.1 0.00 0.00 0.00 93 1022.4
20260506084041 50 227 1.7 6.1 0.00 0.00 0.00 93 1022.4
20260506083542 50 265 1.7 6.1 0.00 0.00 0.00 93 1022.4
20260506083053 50 216 2.6 6.1 0.00 0.00 0.00 93 1022.5
20260506082538 50 232 1.7 7.0 0.00 0.00 0.00 93 1022.5
20260506082043 50 198 1.7 7.0 0.00 0.00 0.00 93 1022.5
20260506081557 50 164 1.7 4.3 0.00 0.00 0.00 93 1022.5
20260506081041 50 221 1.7 6.1 0.00 0.00 0.00 93 1022.6
20260506080541 50 209 1.7 6.1 0.00 0.00 0.00 93 1022.6
20260506073050 50 250 1.7 7.0 0.00 0.00 0.00 93 1022.2
20260506072542 50 265 1.7 7.0 0.00 0.00 0.00 93 1022.2
20260506072042 50 225 1.7 6.1 0.00 0.00 0.00 94 1022.1
20260506071549 50 265 1.7 7.8 0.00 0.00 0.00 94 1022.0
20260506071041 50 236 2.6 7.8 0.00 0.00 0.00 94 1022.1
20260506070538 50 239 2.6 7.0 0.00 0.00 0.00 94 1022.0
20260506062041 50 209 2.6 7.0 0.00 0.00 0.00 95 1021.5
20260506061552 50 225 1.7 7.0 0.00 0.00 0.00 95 1021.8
20260506061043 50 241 0.9 6.1 0.00 0.00 0.00 95 1021.6
20260506060542 50 190 1.7 6.1 0.00 0.00 0.00 95 1021.6
20260506051042 51 205 2.6 7.8 0.00 0.00 0.00 94 1021.3
20260506050544 51 243 2.6 7.0 0.00 0.00 0.00 94 1021.3
20260506045041 51 245 2.6 7.8 0.00 0.00 0.00 94 1021.0
20260506044553 51 225 2.6 7.8 0.00 0.00 0.00 94 1021.1
20260506044045 50 257 3.5 7.0 0.00 0.00 0.00 94 1020.9
20260506043544 50 212 2.6 7.0 0.00 0.00 0.00 93 1021.0
20260506043059 50 212 2.6 7.0 0.00 0.00 0.00 93 1020.8
20260506042542 50 239 2.6 7.0 0.00 0.00 0.00 93 1020.9
20260506042041 50 209 1.7 5.2 0.00 0.00 0.00 93 1020.7
20260506041604 50 210 1.7 7.0 0.00 0.00 0.00 92 1020.7
20260506041043 51 207 1.7 7.0 0.00 0.00 0.00 92 1020.7
20260506040542 51 225 2.6 7.0 0.00 0.00 0.00 92 1020.7
20260506040053 51 212 1.7 7.0 0.00 0.00 0.00 91 1020.5
20260506035541 51 239 2.6 7.8 0.00 0.00 0.00 91 1020.5
20260506035041 51 165 1.7 7.8 0.00 0.00 0.00 91 1020.6
20260506034551 51 223 2.6 7.8 0.00 0.00 0.00 91 1020.5
20260506034043 51 203 3.5 8.7 0.00 0.00 0.00 91 1020.3
20260506033542 51 213 2.6 8.7 0.00 0.00 0.00 90 1020.3
20260506033048 51 242 2.6 7.0 0.00 0.00 0.00 90 1020.2
20260506032541 51 235 2.6 8.7 0.00 0.00 0.00 90 1020.2
20260506032041 51 263 3.5 8.7 0.00 0.00 0.00 90 1020.1
20260506031555 52 238 2.6 7.8 0.00 0.00 0.00 90 1019.9
20260506031041 52 221 2.6 7.8 0.00 0.00 0.00 90 1019.9
20260506030544 52 192 2.6 7.8 0.00 0.00 0.00 90 1019.9
20260506030050 52 267 3.5 7.8 0.00 0.00 0.00 89 1019.7
20260506025543 52 219 2.6 8.7 0.00 0.00 0.00 89 1019.7
20260506025047 52 239 1.7 9.6 0.00 0.00 0.00 89 1019.8
20260506024550 52 229 4.3 9.6 0.00 0.00 0.00 89 1019.9
20260506024042 52 271 4.3 9.6 0.00 0.00 0.00 89 1019.8
20260506023542 52 230 3.5 7.8 0.00 0.00 0.00 89 1019.8
20260506023102 52 291 2.6 7.0 0.00 0.00 0.00 89 1019.7
20260506022541 53 115 1.7 9.6 0.00 0.00 0.00 89 1019.8
20260506022040 53 247 3.5 9.6 0.00 0.00 0.00 88 1019.6
20260506021609 53 219 3.5 9.6 0.00 0.00 0.00 88 1019.6
20260506021049 53 225 3.5 8.7 0.00 0.00 0.00 88 1019.6
20260506020541 53 219 2.6 8.7 0.00 0.00 0.00 88 1019.4
20260506020048 53 208 3.5 11.3 0.00 0.00 0.00 87 1019.5
20260506015543 53 239 3.5 11.3 0.00 0.00 0.00 87 1019.4
20260506015049 53 242 3.5 13.0 0.00 0.00 0.00 87 1019.4
20260506014553 53 221 3.5 13.0 0.00 0.00 0.00 86 1019.4
20260506014047 53 277 3.5 10.4 0.00 0.00 0.00 86 1019.4
20260506013544 53 265 3.5 11.3 0.00 0.00 0.00 86 1019.4
20260506013100 53 219 3.5 11.3 0.00 0.00 0.00 86 1019.3
20260506012541 53 229 4.3 11.3 0.00 0.00 0.00 86 1019.3
20260506012042 53 221 4.3 9.6 0.00 0.00 0.00 86 1019.4
20260506011611 53 246 3.5 8.7 0.00 0.00 0.00 86 1019.4
20260506011042 53 298 2.6 8.7 0.00 0.00 0.00 87 1019.3
20260506010543 53 261 2.6 11.3 0.00 0.00 0.00 88 1019.5
20260506010058 53 225 3.5 11.3 0.00 0.00 0.00 87 1019.4
20260506005543 53 207 3.5 7.8 0.00 0.00 0.00 87 1019.3
20260506005044 53 259 3.5 7.8 0.00 0.00 0.00 86 1019.3
20260506004550 54 205 2.6 7.8 0.00 0.00 0.00 87 1019.3
20260506004043 54 250 2.6 7.8 0.00 0.00 0.00 87 1019.2
20260506003541 54 221 2.6 10.4 0.00 0.00 0.00 89 1019.4
20260506003049 53 201 3.5 10.4 0.00 0.00 0.00 88 1019.3
20260506002540 53 217 4.3 8.7 0.00 0.00 0.00 88 1019.2
20260506002042 53 254 3.5 9.6 0.00 0.00 0.00 88 1019.2
20260506001554 53 239 4.3 9.6 0.00 0.00 0.00 88 1019.1
20260506001042 54 265 2.6 7.8 0.00 0.00 0.00 89 1019.1
20260506000544 54 243 2.6 7.8 0.00 0.00 0.00 90 1019.1
20260506000051 53 208 2.6 7.8 0.00 0.00 0.00 90 1019.1
20260505235544 53 247 1.7 7.8 0.00 0.00 0.00 89 1019.1
20260505235041 53 235 3.5 7.8 0.00 0.00 0.00 89 1019.2
20260505234551 53 221 1.7 7.8 0.00 0.00 0.00 90 1019.2
20260505234042 53 259 3.5 7.8 0.00 0.00 0.00 89 1019.2
20260505233541 53 243 3.5 8.7 0.00 0.00 0.00 89 1019.2
20260505233047 53 218 3.5 8.7 0.00 0.00 0.00 89 1019.2
20260505232541 54 219 3.5 7.8 0.00 0.00 0.00 89 1019.2
20260505232046 54 219 2.6 7.8 0.00 0.00 0.00 89 1019.1
20260505231607 54 241 2.6 7.8 0.00 0.00 0.00 89 1019.3
20260505231041 54 247 2.6 7.8 0.00 0.00 0.00 89 1019.2
20260505230541 54 232 2.6 7.8 0.00 0.00 0.00 89 1019.1
20260505230052 54 221 2.6 7.8 0.00 0.00 0.00 88 1019.1
20260505225542 54 247 3.5 7.8 0.00 0.00 0.00 89 1019.2
20260505225041 55 299 2.6 7.0 0.00 0.00 0.00 89 1019.3
20260505224556 55 236 2.6 6.1 0.00 0.00 0.00 89 1019.1
20260505224044 55 225 2.6 7.8 0.00 0.00 0.00 88 1019.1
20260505223542 55 196 2.6 7.8 0.00 0.00 0.00 87 1019.2
20260505223048 55 246 1.7 3.5 0.00 0.00 0.00 88 1019.2
20260505222547 55 193 1.7 4.3 0.00 0.00 0.00 88 1019.1
20260505222043 55 221 2.6 8.7 0.00 0.00 0.00 88 1019.1
20260505221600 55 202 1.7 8.7 0.00 0.00 0.00 88 1019.2
20260505221043 55 269 3.5 8.7 0.00 0.00 0.00 87 1019.1
20260505220545 55 236 1.7 6.1 0.00 0.00 0.00 88 1019.2
20260505220054 55 246 2.6 5.2 0.00 0.00 0.00 88 1019.2
20260505215543 55 223 2.6 7.8 0.00 0.00 0.00 88 1019.3
20260505215043 55 229 3.5 7.8 0.00 0.00 0.00 89 1019.3
20260505214558 55 205 2.6 6.1 0.00 0.00 0.00 90 1019.4
20260505214043 55 203 1.7 7.8 0.00 0.00 0.00 91 1019.3
20260505213542 54 221 2.6 7.8 0.00 0.00 0.00 89 1019.4
20260505213053 54 261 1.7 7.0 0.00 0.00 0.00 90 1019.5
20260505212542 54 227 2.6 7.0 0.00 0.00 0.00 89 1019.4
20260505212043 54 232 1.7 6.1 0.00 0.00 0.00 90 1019.5
20260505211549 54 221 2.6 5.2 0.00 0.00 0.00 89 1019.5
20260505211044 54 205 2.6 6.1 0.00 0.00 0.00 90 1019.4
20260505210542 54 193 2.6 7.0 0.00 0.00 0.00 90 1019.5
20260505210048 54 210 1.7 7.0 0.00 0.00 0.00 91 1019.4
20260505205542 54 259 2.6 7.8 0.00 0.00 0.00 90 1019.5
20260505205044 54 209 1.7 7.8 0.00 0.00 0.00 91 1019.4
20260505204549 54 225 2.6 7.0 0.00 0.00 0.00 91 1019.5
20260505204041 54 265 2.6 7.0 0.00 0.00 0.00 91 1019.4
20260505203545 54 245 1.7 6.1 0.00 0.00 0.00 93 1019.5
20260505203107 54 205 2.6 6.1 0.00 0.00 0.00 93 1019.4
20260505202543 54 205 2.6 6.1 0.00 0.00 0.00 93 1019.5
20260505202042 53 234 2.6 6.1 0.00 0.00 0.00 93 1019.4
20260505201600 53 205 1.7 4.3 0.00 0.00 0.00 94 1019.5
20260505201045 53 238 1.7 7.0 0.00 0.00 0.00 95 1019.5
20260505200542 53 115 1.7 7.0 0.00 0.00 0.00 95 1019.5
20260505200053 53 228 2.6 7.0 0.00 0.00 0.00 96 1019.5
20260505195544 52 236 1.7 7.8 0.00 0.00 0.00 96 1019.5
20260505195041 52 279 1.7 7.8 0.00 0.00 0.00 96 1019.4
20260505194548 52 232 1.7 7.8 0.00 0.00 0.00 97 1019.5
20260505194043 52 216 2.6 7.8 0.00 0.00 0.00 97 1019.6
20260505193540 52 272 2.6 7.8 0.00 0.00 0.00 97 1019.7
20260505193046 52 247 2.6 7.0 0.00 0.00 0.00 97 1019.4
20260505192543 52 221 1.7 6.1 0.00 0.00 0.00 97 1019.5
20260505192044 52 235 1.7 8.7 0.00 0.00 0.00 97 1019.4
20260505191600 52 265 2.6 9.6 0.00 0.00 0.00 97 1019.4
20260505191041 52 238 3.5 9.6 0.00 0.00 0.00 97 1019.4
20260505190541 52 223 2.6 9.6 0.00 0.00 0.00 97 1019.4
20260505190050 52 292 2.6 7.0 0.00 0.00 0.00 98 1019.4
20260505185541 52 219 2.6 7.0 0.00 0.00 0.00 97 1019.4
20260505185042 52 247 3.5 7.0 0.00 0.00 0.00 98 1019.2
20260505184549 52 246 2.6 6.1 0.00 0.00 0.00 98 1019.2
20260505184042 52 265 2.6 7.0 0.00 0.00 0.00 98 1019.3
20260505183546 52 268 2.6 7.0 0.00 0.00 0.00 98 1019.2
20260505183046 51 215 1.7 7.0 0.00 0.00 0.00 98 1019.2
20260505182541 51 265 2.6 7.0 0.00 0.00 0.00 98 1019.3
20260505182041 51 196 3.5 7.0 0.00 0.00 0.00 98 1019.3
20260505181547 51 235 1.7 11.3 0.00 0.00 0.00 98 1019.3
20260505181041 51 223 2.6 11.3 0.00 0.00 0.00 98 1019.2
20260505180542 51 221 3.5 11.3 0.00 0.00 0.00 98 1019.2
20260505180057 51 221 3.5 7.8 0.00 0.00 0.00 98 1019.1
20260505175542 51 338 3.5 7.0 0.00 0.00 0.00 98 1019.2
20260505175042 51 200 1.7 6.1 0.00 0.00 0.00 98 1019.1
20260505174554 51 215 2.6 6.1 0.00 0.00 0.00 98 1018.9
20260505174042 51 226 2.6 7.8 0.00 0.00 0.00 98 1018.9
20260505173541 51 209 3.5 8.7 0.00 0.00 0.00 97 1018.8
20260505173055 51 201 3.5 8.7 0.00 0.00 0.00 98 1018.7
20260505172543 51 221 2.6 7.0 0.00 0.00 0.00 98 1018.8
20260505172042 51 238 2.6 7.0 0.00 0.00 0.00 98 1018.8
20260505171550 51 241 1.7 6.1 0.00 0.00 0.00 98 1018.8
20260505171042 51 243 2.6 7.0 0.00 0.00 0.00 98 1018.8
20260505170540 50 265 2.6 7.8 0.00 0.00 0.00 98 1018.8
20260505170106 50 228 3.5 7.8 0.00 0.00 0.00 98 1018.8
20260505165543 50 265 3.5 7.8 0.00 0.00 0.00 98 1018.8
20260505165043 50 268 3.5 10.4 0.00 0.00 0.00 98 1018.8
20260505164550 50 208 1.7 10.4 0.00 0.00 0.00 97 1018.8